owner,sensor,date,latitude,longitude,vertical_datum,direction_of_sea_water_velocity,sea_water_speed,upward_sea_water_velocity,qcFlag 
TABS,ioos:station:wmo:42043:1,2005-05-01T00:00:00Z,28.9818,-94.9186,2.0,226.1739548,19.32221519,-99999.0,'11111222,11111222,99999999' 
TABS,ioos:station:wmo:42043:1,2005-05-01T00:30:00Z,28.9818,-94.9186,2.0,225.155062,20.85972675,-99999.0,'11111222,11111222,99999999' 
TABS,ioos:station:wmo:42043:1,2005-05-01T01:00:00Z,28.9818,-94.9186,2.0,227.2180132,23.74830099,-99999.0,'11111222,11111222,99999999' 
TABS,ioos:station:wmo:42043:1,2005-05-01T01:30:00Z,28.9818,-94.9186,2.0,233.5174236,29.26466983,-99999.0,'11111222,11111222,99999999' 
TABS,ioos:station:wmo:42043:1,2005-05-01T02:00:00Z,28.9818,-94.9186,2.0,233.6228272,32.30519618,-99999.0,'11111222,11111222,99999999' 
TABS,ioos:station:wmo:42043:1,2005-05-01T02:30:00Z,28.9818,-94.9186,2.0,226.6484514,34.16032933,-99999.0,'11111222,11111222,99999999' 
TABS,ioos:station:wmo:42043:1,2005-05-01T03:00:00Z,28.9818,-94.9186,2.0,233.3648882,35.57829957,-99999.0,'11111222,11111222,99999999' 
TABS,ioos:station:wmo:42043:1,2005-05-01T03:30:00Z,28.9818,-94.9186,2.0,230.0407451,34.44204407,-99999.0,'11111222,11111222,99999999' 
TABS,ioos:station:wmo:42043:1,2005-05-01T04:00:00Z,28.9818,-94.9186,2.0,229.6631558,36.61499829,-99999.0,'11111222,11111222,99999999' 
TABS,ioos:station:wmo:42043:1,2005-05-01T04:30:00Z,28.9818,-94.9186,2.0,231.4566271,36.78368252,-99999.0,'11111222,11111222,99999999' 
TABS,ioos:station:wmo:42043:1,2005-05-01T05:00:00Z,28.9818,-94.9186,2.0,228.8181263,36.9505751,-99999.0,'11111222,11111222,99999999' 
TABS,ioos:station:wmo:42043:1,2005-05-01T05:30:00Z,28.9818,-94.9186,2.0,229.2580691,38.0909333,-99999.0,'11111222,11111222,99999999' 
TABS,ioos:station:wmo:42043:1,2005-05-01T06:00:00Z,28.9818,-94.9186,2.0,228.69806,40.99858046,-99999.0,'11111222,11111222,99999999' 
TABS,ioos:station:wmo:42043:1,2005-05-01T06:30:00Z,28.9818,-94.9186,2.0,229.6688456,42.73794567,-99999.0,'11111222,11111222,99999999' 
TABS,ioos:station:wmo:42043:1,2005-05-01T07:00:00Z,28.9818,-94.9186,2.0,230.1037893,40.61462914,-99999.0,'11111222,11111222,99999999' 
TABS,ioos:station:wmo:42043:1,2005-05-01T07:30:00Z,28.9818,-94.9186,2.0,229.6073505,41.63465504,-99999.0,'11111222,11111222,99999999' 
TABS,ioos:station:wmo:42043:1,2005-05-01T08:00:00Z,28.9818,-94.9186,2.0,232.6270118,40.11554437,-99999.0,'11111222,11111222,99999999' 
TABS,ioos:station:wmo:42043:1,2005-05-01T08:30:00Z,28.9818,-94.9186,2.0,236.9271952,37.56647974,-99999.0,'11111222,11111222,99999999' 
TABS,ioos:station:wmo:42043:1,2005-05-01T09:00:00Z,28.9818,-94.9186,2.0,232.7531302,37.42280855,-99999.0,'11111222,11111222,99999999' 
TABS,ioos:station:wmo:42043:1,2005-05-01T09:30:00Z,28.9818,-94.9186,2.0,240.4054883,36.30633278,-99999.0,'11111222,11111222,99999999' 
TABS,ioos:station:wmo:42043:1,2005-05-01T10:00:00Z,28.9818,-94.9186,2.0,240.4336946,38.52661677,-99999.0,'11111222,11111222,99999999' 
TABS,ioos:station:wmo:42043:1,2005-05-01T10:30:00Z,28.9818,-94.9186,2.0,241.1205244,37.10426525,-99999.0,'11111222,11111222,99999999' 
TABS,ioos:station:wmo:42043:1,2005-05-01T11:00:00Z,28.9818,-94.9186,2.0,235.9784296,37.90884461,-99999.0,'11111222,11111222,99999999' 
TABS,ioos:station:wmo:42043:1,2005-05-01T11:30:00Z,28.9818,-94.9186,2.0,238.8583722,35.42491778,-99999.0,'11111222,11111222,99999999' 
TABS,ioos:station:wmo:42043:1,2005-05-01T12:00:00Z,28.9818,-94.9186,2.0,241.0009896,35.80938424,-99999.0,'11111222,11111222,99999999' 
TABS,ioos:station:wmo:42043:1,2005-05-01T12:30:00Z,28.9818,-94.9186,2.0,238.6770224,38.6068038,-99999.0,'11111222,11111222,99999999' 
TABS,ioos:station:wmo:42043:1,2005-05-01T13:00:00Z,28.9818,-94.9186,2.0,236.2965656,36.60189339,-99999.0,'11111222,11111222,99999999' 
TABS,ioos:station:wmo:42043:1,2005-05-01T13:30:00Z,28.9818,-94.9186,2.0,240.45004,35.30173084,-99999.0,'11111222,11111222,99999999' 
TABS,ioos:station:wmo:42043:1,2005-05-01T14:00:00Z,28.9818,-94.9186,2.0,245.0731879,32.53020289,-99999.0,'11111222,11111222,99999999' 
TABS,ioos:station:wmo:42043:1,2005-05-01T14:30:00Z,28.9818,-94.9186,2.0,244.5832988,33.01547062,-99999.0,'11111222,11111222,99999999' 
TABS,ioos:station:wmo:42043:1,2005-05-01T15:00:00Z,28.9818,-94.9186,2.0,235.4058875,32.88394441,-99999.0,'11111222,11111222,99999999' 
TABS,ioos:station:wmo:42043:1,2005-05-01T15:30:00Z,28.9818,-94.9186,2.0,233.8282527,33.63249916,-99999.0,'11111222,11111222,99999999' 
TABS,ioos:station:wmo:42043:1,2005-05-01T16:00:00Z,28.9818,-94.9186,2.0,239.4932294,36.95569239,-99999.0,'11111222,11111222,99999999' 
TABS,ioos:station:wmo:42043:1,2005-05-01T16:30:00Z,28.9818,-94.9186,2.0,235.6265266,41.41131246,-99999.0,'11111222,11111222,99999999' 
TABS,ioos:station:wmo:42043:1,2005-05-01T17:00:00Z,28.9818,-94.9186,2.0,239.3683419,39.60654996,-99999.0,'11111222,11111222,99999999' 
TABS,ioos:station:wmo:42043:1,2005-05-01T17:30:00Z,28.9818,-94.9186,2.0,235.8209929,38.37832852,-99999.0,'11111222,11111222,99999999' 
TABS,ioos:station:wmo:42043:1,2005-05-01T18:00:00Z,28.9818,-94.9186,2.0,235.9855188,38.73810785,-99999.0,'11111222,11111222,99999999' 
TABS,ioos:station:wmo:42043:1,2005-05-01T18:30:00Z,28.9818,-94.9186,2.0,236.4626596,46.71701724,-99999.0,'11111222,11111222,99999999' 
TABS,ioos:station:wmo:42043:1,2005-05-01T19:00:00Z,28.9818,-94.9186,2.0,236.0388594,44.60948778,-99999.0,'11111222,11111222,99999999' 
TABS,ioos:station:wmo:42043:1,2005-05-01T19:30:00Z,28.9818,-94.9186,2.0,239.0672426,50.15305375,-99999.0,'11111222,11111222,99999999' 
TABS,ioos:station:wmo:42043:1,2005-05-01T20:00:00Z,28.9818,-94.9186,2.0,236.851038,54.29647963,-99999.0,'11111222,11111222,99999999' 
TABS,ioos:station:wmo:42043:1,2005-05-01T20:30:00Z,28.9818,-94.9186,2.0,238.9535301,45.33398284,-99999.0,'11111222,11111222,99999999' 
TABS,ioos:station:wmo:42043:1,2005-05-01T21:00:00Z,28.9818,-94.9186,2.0,236.01,51.981666,-99999.0,'11111222,11111222,99999999' 
TABS,ioos:station:wmo:42043:1,2005-05-01T21:30:00Z,28.9818,-94.9186,2.0,234.5315961,51.66746365,-99999.0,'11111222,11111222,99999999' 
TABS,ioos:station:wmo:42043:1,2005-05-01T22:00:00Z,28.9818,-94.9186,2.0,237.8428921,46.53936936,-99999.0,'11111222,11111222,99999999' 
TABS,ioos:station:wmo:42043:1,2005-05-01T22:30:00Z,28.9818,-94.9186,2.0,239.0948532,49.99872398,-99999.0,'11111222,11111222,99999999' 
TABS,ioos:station:wmo:42043:1,2005-05-01T23:00:00Z,28.9818,-94.9186,2.0,240.4595717,51.3556696,-99999.0,'11111222,11111222,99999999' 
TABS,ioos:station:wmo:42043:1,2005-05-01T23:30:00Z,28.9818,-94.9186,2.0,240.2136996,46.72265617,-99999.0,'11111222,11111222,99999999' 
TABS,ioos:station:wmo:42043:1,2005-05-02T00:00:00Z,28.9818,-94.9186,2.0,243.5950816,44.70364638,-99999.0,'11111222,11111222,99999999' 
TABS,ioos:station:wmo:42043:1,2005-05-02T00:30:00Z,28.9818,-94.9186,2.0,242.314948,41.19623769,-99999.0,'11111222,11111222,99999999' 
TABS,ioos:station:wmo:42043:1,2005-05-02T01:00:00Z,28.9818,-94.9186,2.0,236.5738201,37.2873437,-99999.0,'11111222,11111222,99999999' 
TABS,ioos:station:wmo:42043:1,2005-05-02T01:30:00Z,28.9818,-94.9186,2.0,230.6164421,32.65541303,-99999.0,'11111222,11111222,99999999' 
TABS,ioos:station:wmo:42043:1,2005-05-02T02:00:00Z,28.9818,-94.9186,2.0,230.9025584,34.17181441,-99999.0,'11111222,11111222,99999999' 
TABS,ioos:station:wmo:42043:1,2005-05-02T02:30:00Z,28.9818,-94.9186,2.0,231.3346608,34.41288857,-99999.0,'11111222,11111222,99999999' 
TABS,ioos:station:wmo:42043:1,2005-05-02T03:00:00Z,28.9818,-94.9186,2.0,232.084701,32.67743564,-99999.0,'11111222,11111222,99999999' 
TABS,ioos:station:wmo:42043:1,2005-05-02T03:30:00Z,28.9818,-94.9186,2.0,229.159085,31.68405435,-99999.0,'11111222,11111222,99999999' 
TABS,ioos:station:wmo:42043:1,2005-05-02T04:00:00Z,28.9818,-94.9186,2.0,231.6094449,41.1584888,-99999.0,'11111222,11111222,99999999' 
TABS,ioos:station:wmo:42043:1,2005-05-02T04:30:00Z,28.9818,-94.9186,2.0,234.1209856,37.11155346,-99999.0,'11111222,11111222,99999999' 
TABS,ioos:station:wmo:42043:1,2005-05-02T05:00:00Z,28.9818,-94.9186,2.0,238.0113018,39.22628328,-99999.0,'11111222,11111222,99999999' 
TABS,ioos:station:wmo:42043:1,2005-05-02T05:30:00Z,28.9818,-94.9186,2.0,235.9784465,44.62914967,-99999.0,'11111222,11111222,99999999' 
TABS,ioos:station:wmo:42043:1,2005-05-02T06:00:00Z,28.9818,-94.9186,2.0,235.3062141,42.4466206,-99999.0,'11111222,11111222,99999999' 
TABS,ioos:station:wmo:42043:1,2005-05-02T06:30:00Z,28.9818,-94.9186,2.0,234.3230053,47.92439254,-99999.0,'11111222,11111222,99999999' 
TABS,ioos:station:wmo:42043:1,2005-05-02T07:00:00Z,28.9818,-94.9186,2.0,236.0405987,47.26097756,-99999.0,'11111222,11111222,99999999' 
TABS,ioos:station:wmo:42043:1,2005-05-02T07:30:00Z,28.9818,-94.9186,2.0,236.4120996,44.95574935,-99999.0,'11111222,11111222,99999999' 
TABS,ioos:station:wmo:42043:1,2005-05-02T08:00:00Z,28.9818,-94.9186,2.0,231.9457202,48.29631249,-99999.0,'11111222,11111222,99999999' 
TABS,ioos:station:wmo:42043:1,2005-05-02T08:30:00Z,28.9818,-94.9186,2.0,232.846323,43.66253428,-99999.0,'11111222,11111222,99999999' 
TABS,ioos:station:wmo:42043:1,2005-05-02T09:00:00Z,28.9818,-94.9186,2.0,235.9676526,50.65612401,-99999.0,'11111222,11111222,99999999' 
TABS,ioos:station:wmo:42043:1,2005-05-02T09:30:00Z,28.9818,-94.9186,2.0,234.9200623,46.09249939,-99999.0,'11111222,11111222,99999999' 
TABS,ioos:station:wmo:42043:1,2005-05-02T10:00:00Z,28.9818,-94.9186,2.0,233.9972843,48.8756023,-99999.0,'11111222,11111222,99999999' 
TABS,ioos:station:wmo:42043:1,2005-05-02T10:30:00Z,28.9818,-94.9186,2.0,232.1626296,45.02641447,-99999.0,'11111222,11111222,99999999' 
TABS,ioos:station:wmo:42043:1,2005-05-02T11:00:00Z,28.9818,-94.9186,2.0,231.2923309,41.4172959,-99999.0,'11111222,11111222,99999999' 
TABS,ioos:station:wmo:42043:1,2005-05-02T11:30:00Z,28.9818,-94.9186,2.0,241.4019975,46.40077262,-99999.0,'11111222,11111222,99999999' 
TABS,ioos:station:wmo:42043:1,2005-05-02T12:00:00Z,28.9818,-94.9186,2.0,243.4666824,47.90552786,-99999.0,'11111222,11111222,99999999' 
TABS,ioos:station:wmo:42043:1,2005-05-02T12:30:00Z,28.9818,-94.9186,2.0,240.4497039,53.5907576,-99999.0,'11111222,11111222,99999999' 
TABS,ioos:station:wmo:42043:1,2005-05-02T13:00:00Z,28.9818,-94.9186,2.0,239.3513405,54.2012343,-99999.0,'11111222,11111222,99999999' 
TABS,ioos:station:wmo:42043:1,2005-05-02T13:30:00Z,28.9818,-94.9186,2.0,233.770214,64.41402409,-99999.0,'11111222,11111222,99999999' 
TABS,ioos:station:wmo:42043:1,2005-05-02T14:00:00Z,28.9818,-94.9186,2.0,233.4419977,65.69497545,-99999.0,'11111222,11111222,99999999' 
TABS,ioos:station:wmo:42043:1,2005-05-02T14:30:00Z,28.9818,-94.9186,2.0,259.189747,28.31240364,-99999.0,'11111222,11111222,99999999' 
TABS,ioos:station:wmo:42043:1,2005-05-02T15:00:00Z,28.9818,-94.9186,2.0,264.9571398,25.25775129,-99999.0,'11111222,11111222,99999999' 
TABS,ioos:station:wmo:42043:1,2005-05-02T15:30:00Z,28.9818,-94.9186,2.0,262.6652174,24.43996727,-99999.0,'11111222,11111222,99999999' 
TABS,ioos:station:wmo:42043:1,2005-05-02T16:00:00Z,28.9818,-94.9186,2.0,269.4836484,22.21090048,-99999.0,'11111222,11111222,99999999' 
TABS,ioos:station:wmo:42043:1,2005-05-02T16:30:00Z,28.9818,-94.9186,2.0,260.3857036,22.99292282,-99999.0,'11111222,11111222,99999999' 
TABS,ioos:station:wmo:42043:1,2005-05-02T17:00:00Z,28.9818,-94.9186,2.0,259.0784906,29.18863649,-99999.0,'11111222,11111222,99999999' 
TABS,ioos:station:wmo:42043:1,2005-05-02T17:30:00Z,28.9818,-94.9186,2.0,259.8931623,39.77720453,-99999.0,'11111222,11111222,99999999' 
TABS,ioos:station:wmo:42043:1,2005-05-02T18:00:00Z,28.9818,-94.9186,2.0,255.4370159,49.63458472,-99999.0,'11111222,11111222,99999999' 
TABS,ioos:station:wmo:42043:1,2005-05-02T18:30:00Z,28.9818,-94.9186,2.0,250.6739428,47.80360342,-99999.0,'11111222,11111222,99999999' 
TABS,ioos:station:wmo:42043:1,2005-05-02T19:00:00Z,28.9818,-94.9186,2.0,250.5978421,49.85091774,-99999.0,'11111222,11111222,99999999' 
TABS,ioos:station:wmo:42043:1,2005-05-02T19:30:00Z,28.9818,-94.9186,2.0,251.0052718,42.43030167,-99999.0,'11111222,11111222,99999999' 
TABS,ioos:station:wmo:42043:1,2005-05-02T20:00:00Z,28.9818,-94.9186,2.0,253.9422816,59.76157461,-99999.0,'11111222,11111222,99999999' 
TABS,ioos:station:wmo:42043:1,2005-05-02T20:30:00Z,28.9818,-94.9186,2.0,246.3243216,55.70868245,-99999.0,'11111222,11111222,99999999' 
TABS,ioos:station:wmo:42043:1,2005-05-02T21:00:00Z,28.9818,-94.9186,2.0,243.5463466,50.44131739,-99999.0,'11111222,11111222,99999999' 
TABS,ioos:station:wmo:42043:1,2005-05-02T21:30:00Z,28.9818,-94.9186,2.0,246.04295,50.11748697,-99999.0,'11111222,11111222,99999999' 
TABS,ioos:station:wmo:42043:1,2005-05-02T22:00:00Z,28.9818,-94.9186,2.0,245.6301999,52.1789402,-99999.0,'11111222,11111222,99999999' 
TABS,ioos:station:wmo:42043:1,2005-05-02T22:30:00Z,28.9818,-94.9186,2.0,245.955412,46.26429509,-99999.0,'11111222,11111222,99999999' 
TABS,ioos:station:wmo:42043:1,2005-05-02T23:00:00Z,28.9818,-94.9186,2.0,243.3446911,42.75367236,-99999.0,'11111222,11111222,99999999' 
TABS,ioos:station:wmo:42043:1,2005-05-02T23:30:00Z,28.9818,-94.9186,2.0,243.1892724,37.60206377,-99999.0,'11111222,11111222,99999999' 
TABS,ioos:station:wmo:42043:1,2005-05-03T00:00:00Z,28.9818,-94.9186,2.0,244.1984867,35.221201,-99999.0,'11111222,11111222,99999999' 
TABS,ioos:station:wmo:42043:1,2005-05-03T00:30:00Z,28.9818,-94.9186,2.0,243.6643746,35.68345975,-99999.0,'11111222,11111222,99999999' 
TABS,ioos:station:wmo:42043:1,2005-05-03T01:00:00Z,28.9818,-94.9186,2.0,241.4915808,31.2603151,-99999.0,'11111222,11111222,99999999' 
TABS,ioos:station:wmo:42043:1,2005-05-03T01:30:00Z,28.9818,-94.9186,2.0,236.9092696,32.85946591,-99999.0,'11111222,11111222,99999999' 
TABS,ioos:station:wmo:42043:1,2005-05-03T02:00:00Z,28.9818,-94.9186,2.0,241.3788335,30.91788641,-99999.0,'11111222,11111222,99999999' 
TABS,ioos:station:wmo:42043:1,2005-05-03T02:30:00Z,28.9818,-94.9186,2.0,238.4085472,29.76021841,-99999.0,'11111222,11111222,99999999' 
TABS,ioos:station:wmo:42043:1,2005-05-03T03:00:00Z,28.9818,-94.9186,2.0,242.6954487,28.42726156,-99999.0,'11111222,11111222,99999999' 
TABS,ioos:station:wmo:42043:1,2005-05-03T03:30:00Z,28.9818,-94.9186,2.0,241.2826292,27.03523997,-99999.0,'11111222,11111222,99999999' 
TABS,ioos:station:wmo:42043:1,2005-05-03T04:00:00Z,28.9818,-94.9186,2.0,244.5323115,24.74439735,-99999.0,'11111222,11111222,99999999' 
TABS,ioos:station:wmo:42043:1,2005-05-03T04:30:00Z,28.9818,-94.9186,2.0,242.7457962,20.83271466,-99999.0,'11111222,11111222,99999999' 
TABS,ioos:station:wmo:42043:1,2005-05-03T05:00:00Z,28.9818,-94.9186,2.0,236.7030982,26.24903236,-99999.0,'11111222,11111222,99999999' 
TABS,ioos:station:wmo:42043:1,2005-05-03T05:30:00Z,28.9818,-94.9186,2.0,239.5595823,29.64648377,-99999.0,'11111222,11111222,99999999' 
TABS,ioos:station:wmo:42043:1,2005-05-03T06:00:00Z,28.9818,-94.9186,2.0,243.8469326,36.66352002,-99999.0,'11111222,11111222,99999999' 
TABS,ioos:station:wmo:42043:1,2005-05-03T06:30:00Z,28.9818,-94.9186,2.0,248.4900224,37.55551225,-99999.0,'11111222,11111222,99999999' 
TABS,ioos:station:wmo:42043:1,2005-05-03T07:00:00Z,28.9818,-94.9186,2.0,249.9665589,38.21201513,-99999.0,'11111222,11111222,99999999' 
TABS,ioos:station:wmo:42043:1,2005-05-03T07:30:00Z,28.9818,-94.9186,2.0,241.5232551,35.13028466,-99999.0,'11111222,11111222,99999999' 
TABS,ioos:station:wmo:42043:1,2005-05-03T08:00:00Z,28.9818,-94.9186,2.0,246.0456935,40.83722322,-99999.0,'11111222,11111222,99999999' 
TABS,ioos:station:wmo:42043:1,2005-05-03T08:30:00Z,28.9818,-94.9186,2.0,243.4172697,44.38147925,-99999.0,'11111222,11111222,99999999' 
TABS,ioos:station:wmo:42043:1,2005-05-03T09:00:00Z,28.9818,-94.9186,2.0,238.4672398,41.99006668,-99999.0,'11111222,11111222,99999999' 
TABS,ioos:station:wmo:42043:1,2005-05-03T09:30:00Z,28.9818,-94.9186,2.0,238.7277955,51.66641075,-99999.0,'11111222,11111222,99999999' 
TABS,ioos:station:wmo:42043:1,2005-05-03T10:00:00Z,28.9818,-94.9186,2.0,234.460625,48.99721727,-99999.0,'11111222,11111222,99999999' 
TABS,ioos:station:wmo:42043:1,2005-05-03T10:30:00Z,28.9818,-94.9186,2.0,234.2742816,40.4520704,-99999.0,'11111222,11111222,99999999' 
TABS,ioos:station:wmo:42043:1,2005-05-03T11:00:00Z,28.9818,-94.9186,2.0,243.5772852,37.70916732,-99999.0,'11111222,11111222,99999999' 
TABS,ioos:station:wmo:42043:1,2005-05-03T11:30:00Z,28.9818,-94.9186,2.0,240.6200524,41.43960666,-99999.0,'11111222,11111222,99999999' 
TABS,ioos:station:wmo:42043:1,2005-05-03T12:00:00Z,28.9818,-94.9186,2.0,240.5418652,37.13026394,-99999.0,'11111222,11111222,99999999' 
TABS,ioos:station:wmo:42043:1,2005-05-03T12:30:00Z,28.9818,-94.9186,2.0,242.6163766,45.72330806,-99999.0,'11111222,11111222,99999999' 
TABS,ioos:station:wmo:42043:1,2005-05-03T13:00:00Z,28.9818,-94.9186,2.0,239.6257519,45.64505231,-99999.0,'11111222,11111222,99999999' 
TABS,ioos:station:wmo:42043:1,2005-05-03T13:30:00Z,28.9818,-94.9186,2.0,243.6851136,48.07144891,-99999.0,'11111222,11111222,99999999' 
TABS,ioos:station:wmo:42043:1,2005-05-03T14:00:00Z,28.9818,-94.9186,2.0,248.6462712,55.09192046,-99999.0,'11111222,11111222,99999999' 
TABS,ioos:station:wmo:42043:1,2005-05-03T14:30:00Z,28.9818,-94.9186,2.0,249.3294631,59.35051306,-99999.0,'11111222,11111222,99999999' 
TABS,ioos:station:wmo:42043:1,2005-05-03T15:00:00Z,28.9818,-94.9186,2.0,249.2847701,52.78224891,-99999.0,'11111222,11111222,99999999' 
TABS,ioos:station:wmo:42043:1,2005-05-03T15:30:00Z,28.9818,-94.9186,2.0,241.8618018,50.02179725,-99999.0,'11111222,11111222,99999999' 
TABS,ioos:station:wmo:42043:1,2005-05-03T16:00:00Z,28.9818,-94.9186,2.0,237.6309652,53.15996238,-99999.0,'11111222,11111222,99999999' 
TABS,ioos:station:wmo:42043:1,2005-05-03T16:30:00Z,28.9818,-94.9186,2.0,236.6601579,52.12892671,-99999.0,'11111222,11111222,99999999' 
TABS,ioos:station:wmo:42043:1,2005-05-03T17:00:00Z,28.9818,-94.9186,2.0,230.8679896,47.02863808,-99999.0,'11111222,11111222,99999999' 
TABS,ioos:station:wmo:42043:1,2005-05-03T17:30:00Z,28.9818,-94.9186,2.0,229.9579577,44.42405317,-99999.0,'11111222,11111222,99999999' 
TABS,ioos:station:wmo:42043:1,2005-05-03T18:00:00Z,28.9818,-94.9186,2.0,227.7320517,44.49932359,-99999.0,'11111222,11111222,99999999' 
TABS,ioos:station:wmo:42043:1,2005-05-03T18:30:00Z,28.9818,-94.9186,2.0,228.1650169,55.83348099,-99999.0,'11111222,11111222,99999999' 
TABS,ioos:station:wmo:42043:1,2005-05-03T19:00:00Z,28.9818,-94.9186,2.0,230.6102219,47.95235656,-99999.0,'11111222,11111222,99999999' 
TABS,ioos:station:wmo:42043:1,2005-05-03T19:30:00Z,28.9818,-94.9186,2.0,233.9939685,50.5217468,-99999.0,'11111222,11111222,99999999' 
TABS,ioos:station:wmo:42043:1,2005-05-03T20:00:00Z,28.9818,-94.9186,2.0,242.5036662,46.24351738,-99999.0,'11111222,11111222,99999999' 
TABS,ioos:station:wmo:42043:1,2005-05-03T20:30:00Z,28.9818,-94.9186,2.0,233.1020101,57.79600678,-99999.0,'11111222,11111222,99999999' 
TABS,ioos:station:wmo:42043:1,2005-05-03T21:00:00Z,28.9818,-94.9186,2.0,226.683419,75.56577268,-99999.0,'11111222,11111222,99999999' 
TABS,ioos:station:wmo:42043:1,2005-05-03T21:30:00Z,28.9818,-94.9186,2.0,224.0638684,82.6930257,-99999.0,'11111222,11111222,99999999' 
TABS,ioos:station:wmo:42043:1,2005-05-03T22:00:00Z,28.9818,-94.9186,2.0,226.2345445,83.01240209,-99999.0,'11111222,11111222,99999999' 
TABS,ioos:station:wmo:42043:1,2005-05-03T22:30:00Z,28.9818,-94.9186,2.0,224.7856423,77.60551076,-99999.0,'11111222,11111222,99999999' 
TABS,ioos:station:wmo:42043:1,2005-05-03T23:00:00Z,28.9818,-94.9186,2.0,222.9456576,73.78450379,-99999.0,'11111222,11111222,99999999' 
TABS,ioos:station:wmo:42043:1,2005-05-03T23:30:00Z,28.9818,-94.9186,2.0,229.1058763,63.10155386,-99999.0,'11111222,11111222,99999999' 
TABS,ioos:station:wmo:42043:1,2005-05-04T00:00:00Z,28.9818,-94.9186,2.0,232.276605,70.78584746,-99999.0,'11111222,11111222,99999999' 
TABS,ioos:station:wmo:42043:1,2005-05-04T00:30:00Z,28.9818,-94.9186,2.0,235.7137278,68.27341869,-99999.0,'11111222,11111222,99999999' 
TABS,ioos:station:wmo:42043:1,2005-05-04T01:00:00Z,28.9818,-94.9186,2.0,231.7665376,58.93067962,-99999.0,'11111222,11111222,99999999' 
TABS,ioos:station:wmo:42043:1,2005-05-04T01:30:00Z,28.9818,-94.9186,2.0,235.9619765,54.40044945,-99999.0,'11111222,11111222,99999999' 
TABS,ioos:station:wmo:42043:1,2005-05-04T02:00:00Z,28.9818,-94.9186,2.0,234.3576718,52.35802326,-99999.0,'11111222,11111222,99999999' 
TABS,ioos:station:wmo:42043:1,2005-05-04T02:30:00Z,28.9818,-94.9186,2.0,236.755685,49.87183273,-99999.0,'11111222,11111222,99999999' 
TABS,ioos:station:wmo:42043:1,2005-05-04T03:00:00Z,28.9818,-94.9186,2.0,238.8779164,50.38133087,-99999.0,'11111222,11111222,99999999' 
TABS,ioos:station:wmo:42043:1,2005-05-04T03:30:00Z,28.9818,-94.9186,2.0,237.3510314,47.30432644,-99999.0,'11111222,11111222,99999999' 
TABS,ioos:station:wmo:42043:1,2005-05-04T04:00:00Z,28.9818,-94.9186,2.0,236.5641868,43.06734842,-99999.0,'11111222,11111222,99999999' 
TABS,ioos:station:wmo:42043:1,2005-05-04T04:30:00Z,28.9818,-94.9186,2.0,236.5394168,39.41176601,-99999.0,'11111222,11111222,99999999' 
TABS,ioos:station:wmo:42043:1,2005-05-04T05:00:00Z,28.9818,-94.9186,2.0,238.8234149,38.38336228,-99999.0,'11111222,11111222,99999999' 
TABS,ioos:station:wmo:42043:1,2005-05-04T05:30:00Z,28.9818,-94.9186,2.0,241.4228369,40.76628509,-99999.0,'11111222,11111222,99999999' 
TABS,ioos:station:wmo:42043:1,2005-05-04T06:00:00Z,28.9818,-94.9186,2.0,240.8489694,59.08340207,-99999.0,'11111222,11111222,99999999' 
TABS,ioos:station:wmo:42043:1,2005-05-04T06:30:00Z,28.9818,-94.9186,2.0,238.6834832,54.37122493,-99999.0,'11111222,11111222,99999999' 
TABS,ioos:station:wmo:42043:1,2005-05-04T07:00:00Z,28.9818,-94.9186,2.0,238.6302513,59.59039184,-99999.0,'11111222,11111222,99999999' 
TABS,ioos:station:wmo:42043:1,2005-05-04T07:30:00Z,28.9818,-94.9186,2.0,239.5070415,80.50415766,-99999.0,'11111222,11111222,99999999' 
TABS,ioos:station:wmo:42043:1,2005-05-04T08:00:00Z,28.9818,-94.9186,2.0,238.0591732,87.02588178,-99999.0,'11111222,11111222,99999999' 
TABS,ioos:station:wmo:42043:1,2005-05-04T08:30:00Z,28.9818,-94.9186,2.0,235.8601998,84.51394796,-99999.0,'11111222,11111222,99999999' 
TABS,ioos:station:wmo:42043:1,2005-05-04T09:00:00Z,28.9818,-94.9186,2.0,235.7892823,81.85216246,-99999.0,'11111222,11111222,99999999' 
TABS,ioos:station:wmo:42043:1,2005-05-04T09:30:00Z,28.9818,-94.9186,2.0,235.0757211,82.04531553,-99999.0,'11111222,11111222,99999999' 
TABS,ioos:station:wmo:42043:1,2005-05-04T10:00:00Z,28.9818,-94.9186,2.0,237.4171824,89.24574836,-99999.0,'11111222,11111222,99999999' 
TABS,ioos:station:wmo:42043:1,2005-05-04T10:30:00Z,28.9818,-94.9186,2.0,238.4746142,88.7599217,-99999.0,'11111222,11111222,99999999' 
TABS,ioos:station:wmo:42043:1,2005-05-04T11:00:00Z,28.9818,-94.9186,2.0,237.9956504,88.04130394,-99999.0,'11111222,11111222,99999999' 
TABS,ioos:station:wmo:42043:1,2005-05-04T11:30:00Z,28.9818,-94.9186,2.0,239.2972461,86.09833041,-99999.0,'11111222,11111222,99999999' 
TABS,ioos:station:wmo:42043:1,2005-05-04T12:00:00Z,28.9818,-94.9186,2.0,243.1086185,80.96485966,-99999.0,'11111222,11111222,99999999' 
TABS,ioos:station:wmo:42043:1,2005-05-04T12:30:00Z,28.9818,-94.9186,2.0,242.3427508,81.90862531,-99999.0,'11111222,11111222,99999999' 
TABS,ioos:station:wmo:42043:1,2005-05-04T13:00:00Z,28.9818,-94.9186,2.0,242.9457826,76.5344478,-99999.0,'11111222,11111222,99999999' 
TABS,ioos:station:wmo:42043:1,2005-05-04T13:30:00Z,28.9818,-94.9186,2.0,243.1369036,80.91097577,-99999.0,'11111222,11111222,99999999' 
TABS,ioos:station:wmo:42043:1,2005-05-04T14:00:00Z,28.9818,-94.9186,2.0,245.7698086,75.29279912,-99999.0,'11111222,11111222,99999999' 
TABS,ioos:station:wmo:42043:1,2005-05-04T14:30:00Z,28.9818,-94.9186,2.0,243.8356392,74.11405265,-99999.0,'11111222,11111222,99999999' 
TABS,ioos:station:wmo:42043:1,2005-05-04T15:00:00Z,28.9818,-94.9186,2.0,240.8849727,73.18740124,-99999.0,'11111222,11111222,99999999' 
TABS,ioos:station:wmo:42043:1,2005-05-04T15:30:00Z,28.9818,-94.9186,2.0,241.0266571,68.86909394,-99999.0,'11111222,11111222,99999999' 
TABS,ioos:station:wmo:42043:1,2005-05-04T16:00:00Z,28.9818,-94.9186,2.0,241.433371,76.58284403,-99999.0,'11111222,11111222,99999999' 